KB3UNV-1 Weather Reports


time (UTC)temp
F
wind
direction
speed
knots
gust
knots
rain 1hr
in
rain 24hr
in
rain mn
in
humidity
%
barometer
mb
20260504130510 53 198 10.4 17.4 0.00 0.01 0.00 64 1006.8
20260504110555 48 360 7.0 13.0 0.00 0.01 0.01 67 1006.8
20260504100553 48 223 8.7 13.0 0.01 0.01 0.01 66 1006.8
20260504081549 47 360 7.8 12.2 0.00 0.00 0.00 65 1007.8
20260504081049 47 360 7.0 12.2 0.00 0.00 0.00 66 1007.9
20260504080547 47 360 7.0 11.3 0.00 0.00 0.00 66 1008.0
20260504050528 47 207 6.1 12.2 0.00 0.00 0.00 62 1010.0
20260504045026 48 219 7.0 14.8 0.00 0.00 0.00 61 1010.1
20260504044527 48 244 7.0 13.9 0.00 0.00 0.00 61 1010.1
20260504044026 48 196 7.0 13.0 0.00 0.00 0.00 61 1010.1
20260504043526 48 223 6.1 13.9 0.00 0.00 0.00 60 1010.2
20260504043026 48 207 7.8 13.0 0.00 0.00 0.00 61 1010.1
20260504042526 48 360 6.1 11.3 0.00 0.00 0.00 61 1010.1
20260504042028 48 194 6.1 11.3 0.00 0.00 0.00 61 1010.1
20260504041528 48 360 6.1 11.3 0.00 0.00 0.00 61 1010.1
20260504041025 48 196 7.8 11.3 0.00 0.00 0.00 60 1010.1
20260504040529 48 360 6.1 11.3 0.00 0.00 0.00 60 1010.2
20260504040025 48 360 7.0 11.3 0.00 0.00 0.00 60 1010.2
20260504035024 48 360 6.1 13.9 0.00 0.00 0.00 60 1010.3
20260504034525 48 360 7.0 11.3 0.00 0.00 0.00 60 1010.3
20260504034025 48 195 6.1 11.3 0.00 0.00 0.00 60 1010.3
20260504033527 48 196 6.1 13.0 0.00 0.00 0.00 60 1010.3
20260504033025 48 360 7.0 13.0 0.00 0.00 0.00 59 1010.4
20260504032523 49 360 6.1 11.3 0.00 0.00 0.00 59 1010.5
20260504032024 49 206 6.1 13.9 0.00 0.00 0.00 59 1010.5
20260504031524 49 360 7.8 13.9 0.00 0.00 0.00 58 1010.5
20260504031023 49 200 5.2 9.6 0.00 0.00 0.00 59 1010.6
20260504030523 49 360 7.0 10.4 0.00 0.00 0.00 59 1010.5
20260504030035 49 198 7.0 9.6 0.00 0.00 0.00 58 1010.6
20260504025022 49 360 6.1 9.6 0.00 0.00 0.00 58 1010.6
20260504024521 49 207 6.1 8.7 0.00 0.00 0.00 58 1010.6
20260504024024 49 360 6.1 8.7 0.00 0.00 0.00 58 1010.6
20260504023522 49 202 5.2 7.8 0.00 0.00 0.00 58 1010.6
20260504023022 49 197 6.1 9.6 0.00 0.00 0.00 57 1010.6
20260504022521 49 204 6.1 10.4 0.00 0.00 0.00 57 1010.7
20260504022025 50 211 6.1 10.4 0.00 0.00 0.00 57 1010.7
20260504021526 50 197 6.1 9.6 0.00 0.00 0.00 57 1010.7
20260504021020 49 213 5.2 8.7 0.00 0.00 0.00 57 1010.7
20260504020520 50 200 5.2 7.8 0.00 0.00 0.00 57 1010.7
20260504020020 50 204 6.1 8.7 0.00 0.00 0.00 57 1010.7
20260504015024 50 198 5.2 10.4 0.00 0.00 0.00 56 1010.6
20260504014521 50 218 6.1 7.8 0.00 0.00 0.00 56 1010.7
20260504014021 50 215 6.1 8.7 0.00 0.00 0.00 56 1010.6
20260504013523 50 360 5.2 8.7 0.00 0.00 0.00 56 1010.6
20260504013021 50 198 5.2 8.7 0.00 0.00 0.00 55 1010.6
20260504012520 50 360 4.3 7.0 0.00 0.00 0.00 56 1010.5
20260504012021 51 196 4.3 7.8 0.00 0.00 0.00 55 1010.5
20260504011519 51 360 4.3 7.8 0.00 0.00 0.00 54 1010.5
20260504011019 51 194 4.3 7.0 0.00 0.00 0.00 54 1010.6
20260504010518 52 211 4.3 12.2 0.00 0.00 0.00 53 1010.6
20260504010021 52 209 5.2 12.2 0.00 0.00 0.00 52 1010.6
20260504005018 52 203 5.2 11.3 0.00 0.00 0.00 52 1010.5
20260504004522 52 360 6.1 11.3 0.00 0.00 0.00 52 1010.5
20260504004017 52 236 7.8 11.3 0.00 0.00 0.00 51 1010.5
20260504003516 52 225 3.5 13.9 0.00 0.00 0.00 51 1010.5
20260504003017 53 246 7.0 13.9 0.00 0.00 0.00 51 1010.5
20260504002516 53 213 5.2 10.4 0.00 0.00 0.00 51 1010.6
20260504002016 53 252 6.1 12.2 0.00 0.00 0.00 50 1010.5
20260504001517 53 223 7.0 12.2 0.00 0.00 0.00 50 1010.4
20260504001016 53 222 6.1 12.2 0.00 0.00 0.00 50 1010.5
20260504000516 53 243 6.1 11.3 0.00 0.00 0.00 49 1010.4
20260504000016 53 229 7.0 11.3 0.00 0.00 0.00 49 1010.4
20260503235015 54 223 6.1 13.9 0.00 0.00 0.00 49 1010.5
20260503234526 54 230 6.1 13.9 0.00 0.00 0.00 48 1010.5
20260503234015 54 227 7.8 13.9 0.00 0.00 0.00 48 1010.5
20260503233514 54 207 7.0 13.0 0.00 0.00 0.00 49 1010.6
20260503233014 54 272 4.3 13.0 0.00 0.00 0.00 48 1010.5
20260503232514 54 249 6.1 17.4 0.00 0.00 0.00 48 1010.6
20260503232013 54 226 6.1 17.4 0.00 0.00 0.00 47 1010.5
20260503231514 54 265 9.6 15.6 0.00 0.00 0.00 47 1010.5
20260503231017 54 250 7.8 13.0 0.00 0.00 0.00 48 1010.6
20260503230516 54 234 5.2 10.4 0.00 0.00 0.00 48 1010.6
20260503230013 54 252 7.8 19.1 0.00 0.00 0.00 47 1010.6
20260503225018 54 225 7.0 13.0 0.00 0.00 0.00 47 1010.6
20260503224515 54 244 7.0 14.8 0.00 0.00 0.00 47 1010.6
20260503224015 54 224 9.6 14.8 0.00 0.00 0.00 46 1010.6
20260503223521 54 225 7.8 13.0 0.00 0.00 0.00 47 1010.7
20260503223014 54 244 5.2 12.2 0.00 0.00 0.00 46 1010.7
20260503222514 54 236 7.0 13.0 0.00 0.00 0.00 46 1010.7
20260503222017 54 257 7.0 13.0 0.00 0.00 0.00 46 1010.7
20260503221513 54 252 5.2 9.6 0.00 0.00 0.00 47 1010.7
20260503221015 54 213 5.2 10.4 0.00 0.00 0.00 47 1010.7
20260503220515 54 252 7.0 17.4 0.00 0.00 0.00 46 1010.7
20260503220034 54 360 8.7 17.4 0.00 0.00 0.00 46 1010.7
20260503215013 55 249 7.8 14.8 0.00 0.00 0.00 46 1010.7
20260503214511 55 210 4.3 14.8 0.00 0.00 0.00 46 1010.7
20260503214011 55 236 7.0 15.6 0.00 0.00 0.00 46 1010.7
20260503213514 55 213 8.7 15.6 0.00 0.00 0.00 45 1010.6
20260503213013 55 212 10.4 18.2 0.00 0.00 0.00 45 1010.7
20260503212512 56 205 10.4 18.2 0.00 0.00 0.00 44 1010.5
20260503212011 56 204 6.1 15.6 0.00 0.00 0.00 45 1010.5
20260503211512 56 260 10.4 15.6 0.00 0.00 0.00 43 1010.5
20260503211011 55 229 7.8 13.9 0.00 0.00 0.00 43 1010.5
20260503210510 56 223 7.8 13.9 0.00 0.00 0.00 42 1010.4
20260503210009 56 288 7.0 11.3 0.00 0.00 0.00 44 1010.5
20260503205011 55 257 7.0 18.2 0.00 0.00 0.00 43 1010.6
20260503204510 55 271 10.4 18.2 0.00 0.00 0.00 43 1010.7
20260503204014 55 229 7.8 17.4 0.00 0.00 0.00 41 1010.8
20260503203509 55 250 6.1 16.5 0.00 0.00 0.00 44 1010.7
20260503203020 56 254 8.7 15.6 0.00 0.00 0.00 42 1010.9
20260503202508 55 245 8.7 15.6 0.00 0.00 0.00 42 1010.9
20260503202008 55 251 5.2 15.6 0.00 0.00 0.00 43 1011.0
20260503201508 55 249 8.7 20.0 0.00 0.00 0.00 42 1011.0
20260503201011 56 246 7.8 13.9 0.00 0.00 0.00 42 1011.1
20260503200506 56 203 5.2 15.6 0.00 0.00 0.00 42 1011.1
20260503200005 56 250 8.7 16.5 0.00 0.00 0.00 42 1011.2
20260503195003 55 247 7.0 13.9 0.00 0.00 0.00 42 1011.4
20260503194503 55 245 7.8 17.4 0.00 0.00 0.00 43 1011.4
20260503194002 55 248 10.4 17.4 0.00 0.00 0.00 42 1011.4
20260503193500 55 232 6.1 14.8 0.00 0.00 0.00 44 1011.5
20260503193112 55 277 7.0 17.4 0.00 0.00 0.00 44 1011.6
20260503192600 55 244 9.6 17.4 0.00 0.00 0.00 46 1011.7
20260503192059 55 279 7.8 17.4 0.00 0.00 0.00 47 1011.7
20260503191608 54 198 10.4 18.2 0.00 0.00 0.00 46 1011.7
20260503191058 54 234 10.4 16.5 0.00 0.00 0.00 47 1011.9
20260503190557 54 293 6.1 15.6 0.00 0.00 0.00 44 1011.8
20260503190059 54 225 7.0 15.6 0.00 0.00 0.00 47 1012.0
20260503185100 54 294 8.7 14.8 0.00 0.00 0.00 45 1012.2
20260503184608 54 221 8.7 14.8 0.00 0.00 0.00 47 1012.2
20260503184055 54 269 5.2 13.0 0.00 0.00 0.00 47 1012.3
20260503183555 54 248 6.1 16.5 0.00 0.00 0.00 47 1012.3
20260503183108 54 261 9.6 17.4 0.00 0.00 0.00 46 1012.3
20260503182556 54 198 8.7 17.4 0.00 0.00 0.00 49 1012.5
20260503182053 52 245 11.3 17.4 0.00 0.00 0.00 47 1012.5
20260503181606 52 249 8.7 15.6 0.00 0.00 0.00 47 1012.6
20260503181051 52 236 6.1 17.4 0.00 0.00 0.00 50 1012.7
20260503180551 52 255 11.3 17.4 0.00 0.00 0.00 49 1012.7
20260503180050 52 265 8.7 23.5 0.00 0.00 0.00 48 1012.8
20260503175051 52 206 8.7 16.5 0.00 0.00 0.00 48 1012.9
20260503174548 52 237 8.7 15.6 0.00 0.00 0.00 50 1013.0
20260503174048 52 225 9.6 20.0 0.00 0.00 0.00 51 1013.0
20260503173547 52 199 11.3 19.1 0.00 0.00 0.00 49 1013.0
20260503173056 52 224 8.7 14.8 0.00 0.00 0.00 50 1013.1
20260503172546 51 231 5.2 13.0 0.00 0.00 0.00 52 1013.2
20260503172044 51 239 7.0 14.8 0.00 0.00 0.00 50 1013.3
20260503171544 51 243 9.6 14.8 0.00 0.00 0.00 50 1013.3
20260503171044 51 279 7.8 14.8 0.00 0.00 0.00 49 1013.4
20260503170543 51 286 9.6 14.8 0.00 0.00 0.00 50 1013.5
20260503150529 47 202 7.0 13.9 0.00 0.00 0.00 51 1014.4